• In Germany
  • List of Countries
  • For 7 days
  • Water Temperature
  • Satellite Maps
  • Weather Map
  • Weather Widgets
  • user-avatar
    Login

    Hourly Weather Santiago del Estero

    Today, 11 December, Monday

    Time Temperature Precipitation Wind Pressure Humidity
    00:00 +30°C° 0 mm 2 mps 741 mmHg 35%
    01:00 +29°C° 0 mm 3 mps 741 mmHg 35%
    02:00 +29°C° 0 mm 3 mps 741 mmHg 34%
    03:00 +28°C° 0 mm 3 mps 742 mmHg 34%
    04:00 +27°C° 0 mm 3 mps 742 mmHg 35%
    05:00 +26°C° 0 mm 3 mps 742 mmHg 36%
    06:00 +27°C° 0 mm 3 mps 743 mmHg 35%
    07:00 +28°C° 0 mm 4 mps 744 mmHg 34%
    08:00 +29°C° 0 mm 5 mps 744 mmHg 33%
    09:00 +30°C° 0 mm 4 mps 744 mmHg 31%
    10:00 +33°C° 0 mm 4 mps 744 mmHg 29%
    11:00 +34°C° 0 mm 4 mps 744 mmHg 27%
    12:00 +34°C° 0 mm 4 mps 744 mmHg 26%
    13:00 +35°C° 0 mm 4 mps 743 mmHg 25%
    14:00 +36°C° 0 mm 3 mps 742 mmHg 24%
    15:00 +36°C° 0 mm 3 mps 741 mmHg 25%
    16:00 +36°C° 0 mm 3 mps 740 mmHg 25%
    17:00 +36°C° 0 mm 3 mps 740 mmHg 25%
    18:00 +34°C° 0 mm 2 mps 740 mmHg 29%
    19:00 +31°C° 0 mm 2 mps 740 mmHg 32%
    20:00 +29°C° 0 mm 1 mps 740 mmHg 35%
    21:00 +28°C° 0 mm 2 mps 740 mmHg 35%
    22:00 +28°C° 0 mm 2 mps 740 mmHg 34%
    23:00 +28°C° 0 mm 2 mps 741 mmHg 33%

    Tomorrow, 12 December, Tuesday

    Time Temperature Precipitation Wind Pressure Humidity
    00:00 +27°C° 0 mm 2 mps 740 mmHg 33%
    01:00 +26°C° 0 mm 2 mps 740 mmHg 33%
    02:00 +25°C° 0 mm 2 mps 740 mmHg 32%
    03:00 +25°C° 0 mm 2 mps 740 mmHg 34%
    04:00 +24°C° 0 mm 2 mps 739 mmHg 35%
    05:00 +24°C° 0 mm 2 mps 739 mmHg 36%
    06:00 +25°C° 0 mm 3 mps 740 mmHg 35%
    07:00 +27°C° 0 mm 4 mps 740 mmHg 35%
    08:00 +29°C° 0 mm 5 mps 741 mmHg 34%
    09:00 +32°C° 0 mm 5 mps 741 mmHg 31%
    10:00 +35°C° 0 mm 5 mps 740 mmHg 28%
    11:00 +38°C° 0 mm 6 mps 740 mmHg 26%
    12:00 +39°C° 0 mm 6 mps 739 mmHg 24%
    13:00 +40°C° 0 mm 5 mps 739 mmHg 23%
    14:00 +41°C° 0 mm 5 mps 738 mmHg 21%
    15:00 +41°C° 0 mm 5 mps 737 mmHg 21%
    16:00 +42°C° 0 mm 5 mps 737 mmHg 21%
    17:00 +42°C° 0 mm 5 mps 736 mmHg 21%
    18:00 +38°C° 0 mm 4 mps 736 mmHg 25%
    19:00 +36°C° 0 mm 4 mps 736 mmHg 28%
    20:00 +34°C° 0 mm 3 mps 737 mmHg 31%
    21:00 +33°C° 0 mm 3 mps 737 mmHg 31%
    22:00 +31°C° 0 mm 3 mps 737 mmHg 32%
    23:00 +32°C° 0 mm 4 mps 737 mmHg 32%

    Day after tomorrow, 13 December, Wednesday

    Time Temperature Precipitation Wind Pressure Humidity
    00:00 +30°C° 0 mm 3 mps 737 mmHg 32%
    01:00 +29°C° 0 mm 3 mps 736 mmHg 33%
    02:00 +28°C° 0 mm 3 mps 736 mmHg 33%
    03:00 +28°C° 0 mm 3 mps 736 mmHg 33%
    04:00 +27°C° 0 mm 3 mps 736 mmHg 33%
    05:00 +27°C° 0 mm 4 mps 736 mmHg 33%
    06:00 +28°C° 0 mm 4 mps 736 mmHg 32%
    07:00 +30°C° 0 mm 5 mps 737 mmHg 32%
    08:00 +33°C° 0 mm 6 mps 737 mmHg 31%
    09:00 +36°C° 0 mm 6 mps 737 mmHg 28%
    10:00 +39°C° 0 mm 6 mps 738 mmHg 26%
    11:00 +42°C° 0 mm 6 mps 738 mmHg 23%
    12:00 +44°C° 0 mm 6 mps 737 mmHg 21%
    13:00 +46°C° 0 mm 6 mps 737 mmHg 20%
    14:00 +47°C° 0 mm 6 mps 736 mmHg 18%
    15:00 +47°C° 0 mm 5 mps 736 mmHg 18%
    16:00 +47°C° 0 mm 5 mps 735 mmHg 17%
    17:00 +47°C° 0 mm 4 mps 735 mmHg 17%
    18:00 +43°C° 0 mm 3 mps 735 mmHg 21%
    19:00 +39°C° 0 mm 3 mps 736 mmHg 25%
    20:00 +36°C° 0 mm 2 mps 736 mmHg 28%
    21:00 +36°C° 0 mm 2 mps 737 mmHg 29%
    22:00 +36°C° 0 mm 2 mps 738 mmHg 30%
    23:00 +35°C° 0 mm 2 mps 738 mmHg 31%

    14 December, Thursday

    Time Temperature Precipitation Wind Pressure Humidity
    00:00 +35°C° 0 mm 3 mps 738 mmHg 33%
    01:00 +34°C° 0 mm 4 mps 739 mmHg 34%
    02:00 +33°C° 0 mm 5 mps 739 mmHg 35%
    03:00 +32°C° 0 mm 6 mps 739 mmHg 40%
    04:00 +30°C° 0 mm 6 mps 740 mmHg 44%
    05:00 +29°C° 0 mm 6 mps 740 mmHg 48%
    06:00 +29°C° 0 mm 7 mps 741 mmHg 48%
    07:00 +30°C° 0 mm 7 mps 742 mmHg 49%
    08:00 +30°C° 0 mm 7 mps 742 mmHg 49%
    09:00 +33°C° 0 mm 6 mps 742 mmHg 45%
    10:00 +35°C° 0 mm 5 mps 742 mmHg 40%
    11:00 +36°C° 0 mm 5 mps 742 mmHg 36%
    12:00 +39°C° 0 mm 5 mps 741 mmHg 34%
    13:00 +40°C° 0 mm 4 mps 741 mmHg 31%
    14:00 +41°C° 0 mm 4 mps 740 mmHg 29%
    15:00 +41°C° 0 mm 4 mps 740 mmHg 28%
    16:00 +42°C° 0 mm 3 mps 739 mmHg 28%
    17:00 +42°C° 0 mm 3 mps 739 mmHg 27%
    18:00 +39°C° 0 mm 2 mps 739 mmHg 31%
    19:00 +36°C° 0 mm 2 mps 739 mmHg 35%
    20:00 +33°C° 0 mm 1 mps 740 mmHg 39%
    21:00 +33°C° 0 mm 1 mps 740 mmHg 41%
    22:00 +32°C° 0 mm 2 mps 740 mmHg 42%
    23:00 +31°C° 0 mm 2 mps 741 mmHg 44%

    15 December, Friday

    Time Temperature Precipitation Wind Pressure Humidity
    00:00 +31°C° 0 mm 2 mps 740 mmHg 46%
    01:00 +30°C° 0 mm 2 mps 740 mmHg 48%
    02:00 +29°C° 0 mm 2 mps 740 mmHg 50%
    03:00 +29°C° 0.1 mm 2 mps 740 mmHg 51%
    04:00 +28°C° 0.1 mm 2 mps 740 mmHg 53%
    05:00 +28°C° 0.1 mm 2 mps 740 mmHg 55%
    06:00 +30°C° 0 mm 2 mps 740 mmHg 50%
    07:00 +32°C° 0 mm 2 mps 740 mmHg 45%
    08:00 +34°C° 0 mm 2 mps 741 mmHg 40%
    09:00 +37°C° 0 mm 2 mps 740 mmHg 36%
    10:00 +39°C° 0 mm 2 mps 740 mmHg 31%
    11:00 +42°C° 0 mm 2 mps 740 mmHg 26%
    12:00 +44°C° 0 mm 3 mps 739 mmHg 25%
    13:00 +45°C° 0 mm 4 mps 738 mmHg 23%
    14:00 +46°C° 0 mm 5 mps 737 mmHg 21%
    15:00 +46°C° 0 mm 5 mps 736 mmHg 22%
    16:00 +46°C° 0 mm 5 mps 736 mmHg 22%
    17:00 +45°C° 0 mm 5 mps 735 mmHg 22%
    18:00 +43°C° 0 mm 5 mps 735 mmHg 23%
    19:00 +41°C° 0 mm 4 mps 735 mmHg 25%
    20:00 +38°C° 0 mm 4 mps 736 mmHg 26%
    21:00 +39°C° 0 mm 5 mps 736 mmHg 28%
    22:00 +39°C° 0 mm 6 mps 736 mmHg 29%
    23:00 +38°C° 0 mm 6 mps 736 mmHg 30%

    16 December, Saturday

    Time Temperature Precipitation Wind Pressure Humidity
    00:00 +38°C° 0 mm 6 mps 736 mmHg 32%
    01:00 +36°C° 0 mm 6 mps 735 mmHg 34%
    02:00 +36°C° 0 mm 6 mps 735 mmHg 35%
    03:00 +35°C° 0 mm 6 mps 735 mmHg 37%
    04:00 +35°C° 0 mm 6 mps 735 mmHg 38%
    05:00 +34°C° 0 mm 6 mps 735 mmHg 39%
    06:00 +37°C° 0 mm 8 mps 735 mmHg 37%
    07:00 +38°C° 0 mm 9 mps 735 mmHg 35%
    08:00 +39°C° 0 mm 11 mps 735 mmHg 32%
    09:00 +42°C° 0 mm 10 mps 735 mmHg 29%
    10:00 +44°C° 0 mm 10 mps 734 mmHg 27%
    11:00 +45°C° 0 mm 10 mps 734 mmHg 24%
    12:00 +47°C° 0 mm 10 mps 733 mmHg 22%
    13:00 +48°C° 0 mm 10 mps 732 mmHg 21%
    14:00 +49°C° 0 mm 9 mps 732 mmHg 20%
    15:00 +49°C° 0 mm 9 mps 731 mmHg 20%
    16:00 +48°C° 0 mm 8 mps 731 mmHg 19%
    17:00 +48°C° 0 mm 8 mps 731 mmHg 19%
    18:00 +45°C° 0 mm 6 mps 731 mmHg 22%
    19:00 +42°C° 0 mm 5 mps 732 mmHg 24%
    20:00 +40°C° 0 mm 4 mps 732 mmHg 27%
    21:00 +40°C° 0 mm 4 mps 733 mmHg 27%
    22:00 +38°C° 0 mm 4 mps 733 mmHg 28%
    23:00 +37°C° 0 mm 4 mps 733 mmHg 29%
    Show more